Wind_Speed
40 37 38 37 33 31 29 25 22 22 21 21 22 20 19 18 16 15 14 14 13 12 13 14 13 11 13 14 12 9 6 4 2 1 3 4 3 2 2 2 2 2 2 2 3 4 5 6 7 8 9 11 12 14 15 16 17 17 16 15 15 14 13
44 42 41 39 37 35 33 30 27 26 24 23 23 22 20 18 17 16 15 16 15 14 14 16 16 15 14 15 14 12 10 7 6 4 2 2 3 3 2 2 2 2 3 2 3 3 4 5 5 6 7 8 10 11 13 15 16 17 17 16 16 15 14
47 44 42 41 41 39 35 33 31 30 29 27 25 24 21 18 17 17 17 17 17 16 16 16 17 17 16 16 16 15 13 10 9 7 4 3 4 3 2 2 3 3 3 3 3 4 5 5 5 5 6 7 8 9 11 12 14 15 16 16 16 15 14
49 45 43 42 44 42 37 34 32 31 32 30 28 27 23 19 17 18 19 19 19 18 17 16 17 17 17 17 17 17 16 13 11 10 8 6 5 4 4 3 3 4 4 4 4 4 5 6 6 5 6 6 7 7 9 10 11 12 13 14 15 15 15
51 47 46 46 46 46 43 38 34 33 33 33 32 29 24 20 19 21 21 19 19 19 18 18 17 16 16 16 16 17 17 16 14 12 10 9 8 7 6 5 4 5 5 6 5 5 6 7 7 6 6 6 6 6 7 8 9 10 10 11 12 13 14
57 54 52 50 50 50 48 44 39 37 36 36 36 34 30 25 23 23 22 19 19 19 18 19 18 16 15 15 15 16 17 17 17 15 13 11 10 10 9 7 7 6 6 7 7 7 7 7 8 8 7 6 6 6 6 6 7 8 8 9 10 11 12
63 61 59 55 52 51 49 47 44 40 39 39 39 37 33 28 26 26 23 20 20 19 19 20 19 17 16 16 15 15 16 17 18 18 17 15 13 12 11 10 9 8 8 8 8 8 9 9 9 9 9 8 7 6 6 6 6 7 8 8 9 10 10
65 64 61 58 56 53 51 49 45 42 42 41 41 41 36 30 28 28 26 23 22 21 21 20 19 18 16 16 16 16 16 17 18 18 18 18 17 16 14 13 12 11 10 10 10 10 10 10 10 10 10 10 9 8 7 7 7 7 8 8 9 9 10
65 64 62 60 58 56 55 50 43 40 41 42 42 42 38 33 29 28 27 26 24 23 21 20 21 20 17 16 17 17 17 18 18 18 18 19 19 19 18 16 16 14 12 12 12 12 13 13 12 12 11 11 11 11 10 9 9 9 8 8 9 9 9
65 64 62 61 59 58 56 52 45 38 37 41 45 44 39 35 33 31 29 27 26 24 22 21 21 21 19 18 19 19 19 19 18 18 18 19 20 20 20 19 18 17 15 15 15 14 15 15 15 14 13 13 13 13 12 12 11 11 10 10 10 10 10
65 64 62 61 60 59 57 56 54 48 44 46 50 49 44 40 38 35 32 30 29 27 25 24 23 22 22 23 22 21 21 20 18 17 18 18 20 20 21 21 21 20 18 18 17 17 17 17 17 17 16 15 15 15 14 14 14 13 12 11 11 11 11
65 64 63 62 60 60 59 58 59 59 58 57 55 51 47 43 40 38 36 34 32 30 29 28 26 24 24 24 22 21 21 20 19 17 16 17 19 20 21 21 22 21 21 21 20 19 19 19 19 19 19 18 17 17 16 16 16 15 15 14 13 13 13
66 65 64 62 61 60 59 58 59 59 61 61 56 51 48 45 41 39 40 39 37 35 33 31 28 26 26 26 24 23 22 21 18 16 15 17 18 20 21 22 22 23 23 23 23 22 22 22 21 21 21 21 20 19 19 18 18 17 17 16 15 15 15
67 66 65 63 62 61 59 59 58 58 58 57 54 51 47 43 40 39 40 40 39 38 36 33 31 28 28 29 28 26 24 20 18 18 18 17 19 20 21 21 22 23 24 25 25 24 24 24 24 24 24 24 23 22 22 21 20 20 19 18 17 17 17
69 68 66 65 63 62 61 59 58 57 56 55 52 49 46 43 41 40 40 40 40 41 40 37 33 32 31 32 30 27 25 21 18 20 21 21 22 22 21 21 21 23 25 26 27 27 27 27 27 27 27 27 26 25 25 24 23 22 21 20 19 19 19
71 70 68 67 65 64 62 61 59 58 56 54 52 49 47 47 47 45 44 41 39 42 45 41 36 35 35 35 32 29 27 25 21 19 22 26 28 26 21 19 20 22 25 27 29 29 29 29 30 30 29 29 29 28 28 27 26 24 23 22 21 21 20
73 71 70 69 68 66 64 62 60 59 57 55 54 52 51 53 53 50 48 43 37 40 46 45 40 39 37 36 34 31 29 28 26 24 25 31 34 31 25 20 18 22 26 28 30 32 32 32 32 31 31 31 30 29 29 28 26 24 23 23 22 22 21
74 73 72 71 70 68 66 65 63 61 59 58 56 56 54 54 55 53 50 47 42 42 47 49 46 43 40 38 36 34 30 29 30 31 33 35 36 32 31 29 24 23 26 29 30 32 34 34 33 32 32 32 31 31 29 27 25 24 23 23 23 23 22
76 75 74 73 71 70 68 67 65 63 62 60 59 58 57 55 56 55 53 52 50 48 50 52 50 47 46 43 39 36 33 31 31 33 35 36 36 34 35 35 32 30 30 30 31 33 35 35 35 35 33 33 32 32 30 27 25 24 23 23 24 23 23
79 78 76 75 74 72 71 69 68 66 64 63 62 61 60 58 59 59 58 57 55 52 54 56 53 50 50 47 42 40 38 36 33 33 34 35 35 35 37 38 37 38 38 37 37 38 37 36 36 36 35 34 34 33 32 29 26 24 23 23 23 23 23
82 80 79 77 76 75 74 72 71 69 67 66 64 63 62 61 61 61 62 62 60 57 58 60 59 55 52 48 44 42 42 42 40 37 37 38 38 37 39 40 41 42 43 43 42 41 38 35 34 35 36 35 34 33 31 28 25 23 22 22 22 23 23
86 83 82 80 79 78 77 75 74 72 70 68 67 66 65 64 63 63 63 63 62 61 60 62 63 61 55 51 48 46 43 44 44 43 43 43 42 41 41 43 44 44 45 44 42 39 38 36 33 32 33 33 31 29 26 23 20 20 20 20 22 23 23
89 87 85 83 81 80 80 78 77 75 73 72 70 69 68 66 65 65 64 64 64 63 63 64 66 66 62 57 54 52 48 47 47 48 48 47 45 43 44 45 45 45 47 46 43 40 40 40 37 33 32 32 31 30 27 23 20 19 18 18 20 23 24
92 90 88 86 84 83 82 81 80 78 76 75 73 72 71 69 68 66 66 66 65 65 65 65 66 67 67 64 60 57 53 51 51 51 51 51 47 44 45 46 45 46 48 48 47 44 42 42 40 36 33 31 30 30 28 26 24 23 22 21 21 22 23
95 94 92 90 88 87 86 84 82 81 80 78 77 75 74 72 71 69 67 67 67 67 67 67 67 67 69 69 67 64 60 56 54 52 52 53 50 46 45 46 46 46 47 47 47 45 43 43 42 39 34 32 32 31 29 27 26 26 26 25 23 22 22
99 97 96 94 92 91 89 87 86 84 83 81 80 78 77 76 75 73 71 69 68 68 69 69 69 69 70 71 70 69 67 64 60 57 55 55 53 49 47 47 48 48 47 47 46 46 45 44 44 42 39 36 35 34 33 31 30 28 28 28 26 24 23
102 101 99 98 96 95 93 91 90 88 86 85 84 82 80 79 78 76 74 73 71 70 70 71 71 70 71 72 71 71 70 69 67 63 60 58 56 54 52 50 50 50 48 47 47 47 47 47 47 46 44 41 38 37 36 36 34 32 31 30 28 26 26
105 104 103 102 101 99 96 95 94 92 90 88 87 85 84 83 81 79 78 76 75 73 72 72 73 73 72 73 73 72 70 70 69 67 65 63 61 58 56 55 54 52 50 47 47 48 48 49 49 49 47 46 44 41 39 38 37 35 34 32 29 28 28
108 108 107 107 105 103 101 100 98 96 94 93 91 89 88 86 85 83 81 79 78 77 75 74 74 75 75 75 74 73 71 70 71 70 67 65 65 63 60 59 57 56 54 51 50 50 49 48 49 50 51 50 48 45 43 41 39 38 38 36 33 31 31
112 112 111 110 108 107 106 105 103 101 99 97 95 94 93 91 89 88 86 83 81 80 79 78 76 76 77 77 77 76 74 72 73 72 70 68 68 67 65 63 61 59 57 55 54 52 50 47 46 48 52 52 51 48 46 45 43 42 42 40 38 35 35
115 115 114 113 112 110 110 109 108 106 104 102 100 99 97 96 94 92 91 89 86 84 82 81 80 79 78 79 79 79 78 76 75 75 74 73 72 70 68 67 65 62 60 58 57 56 54 51 50 50 51 52 51 49 48 48 47 46 45 44 42 40 39
117 117 116 116 115 114 113 113 111 109 108 106 105 104 102 101 99 97 96 94 92 89 86 84 83 82 81 81 81 81 81 79 78 78 77 77 76 74 73 71 69 67 65 62 61 61 60 58 57 56 55 53 52 51 51 51 52 51 50 48 46 44 43
119 118 118 118 117 117 116 115 114 113 111 110 109 107 106 105 104 102 100 98 96 93 90 88 86 85 85 84 83 83 83 82 81 80 80 80 79 78 78 76 74 73 72 68 65 65 65 63 62 60 58 56 55 55 54 55 56 56 55 52 49 47 46
122 121 121 120 119 119 118 117 117 116 114 113 112 110 109 108 107 105 104 102 100 97 95 92 90 88 87 87 86 86 86 85 83 82 83 83 82 81 81 80 79 78 77 74 70 67 67 67 67 65 61 58 57 57 57 56 57 58 58 56 53 51 49
125 125 124 123 122 121 120 120 119 119 117 116 115 113 112 110 109 108 106 105 103 101 98 96 94 92 91 90 90 90 89 87 86 85 85 86 85 84 83 83 84 83 83 80 77 73 71 71 71 70 66 62 59 59 59 58 57 58 59 59 57 55 52
127 127 126 126 125 124 123 122 122 121 120 119 118 116 114 113 111 110 108 106 105 104 102 100 98 96 94 93 93 93 92 90 89 89 89 88 87 87 86 86 86 87 87 86 84 80 77 76 76 75 73 69 64 61 61 61 60 59 59 60 60 59 57
128 128 128 128 127 127 126 126 125 124 123 122 121 119 118 116 114 112 110 109 107 105 104 103 101 99 97 96 96 96 95 93 93 92 92 91 89 89 89 89 89 89 89 89 88 86 83 81 80 79 78 76 71 66 64 64 63 62 61 62 62 62 62
129 130 129 129 129 129 129 128 128 127 126 126 125 123 122 120 118 116 114 112 110 108 106 105 104 102 101 100 99 98 97 97 96 95 95 94 92 91 91 92 92 91 90 89 89 88 87 86 84 83 81 80 77 73 69 67 66 65 65 65 64 63 63
Wind_Direction
230 232 235 237 239 239 235 236 238 235 246 257 248 241 238 233 231 232 232 228 217 210 203 197 193 200 216 225 232 241 247 255 281 353 29 40 53 56 37 33 35 37 36 30 14 16 25 35 44 46 47 48 47 45 43 42 43 43 45 48 51 55 58
229 231 236 239 241 241 238 238 238 236 247 253 244 241 241 236 235 234 235 237 228 218 209 202 198 196 205 219 228 236 246 257 268 272 302 356 17 32 29 359 348 350 3 5 354 351 355 10 26 35 40 43 44 43 42 42 42 41 41 41 42 45 48
228 229 235 241 242 241 237 238 239 237 244 248 237 234 237 235 235 233 232 236 235 229 220 210 205 200 200 210 220 229 239 249 257 257 260 297 337 3 5 343 321 317 326 334 336 333 334 345 357 9 24 32 36 37 39 40 40 39 39 39 38 39 40
228 227 231 236 239 240 237 236 237 237 240 240 231 231 234 230 231 233 230 230 234 234 230 221 214 208 203 205 211 219 227 236 245 251 258 276 299 316 327 331 319 306 305 305 313 318 320 325 333 344 358 13 23 29 33 35 36 37 37 36 35 35 35
227 225 227 231 235 239 239 237 237 237 239 237 230 230 234 232 234 238 234 232 233 234 233 230 224 218 213 211 210 214 220 227 235 243 253 266 280 290 298 308 310 305 297 292 293 300 308 312 317 326 335 347 1 12 21 25 27 30 31 31 31 30 30
229 227 229 232 234 236 237 237 235 233 237 236 228 227 233 237 237 237 236 235 234 233 234 233 230 226 222 221 219 217 221 226 232 237 244 253 266 277 284 292 297 298 293 287 284 284 290 297 304 310 316 323 335 347 357 6 11 14 18 21 22 22 23
231 231 232 232 233 234 235 236 235 234 238 235 228 224 228 234 235 232 231 232 232 234 235 234 233 229 226 226 226 226 226 228 232 237 241 247 255 263 273 280 284 285 284 280 275 274 276 282 289 296 303 307 313 322 331 340 347 355 359 4 8 10 12
231 232 232 232 232 233 234 236 238 239 238 234 227 221 222 229 232 228 227 228 229 231 231 231 231 227 226 230 231 232 234 235 238 241 244 247 251 256 262 268 273 275 275 273 270 268 267 270 276 283 290 295 298 303 310 317 324 333 340 345 349 354 358
231 232 232 232 232 233 233 235 237 238 237 234 225 217 220 229 230 229 231 230 228 229 229 229 228 220 218 228 234 236 238 240 245 249 251 252 253 255 256 259 264 267 268 266 266 265 263 264 267 272 278 283 287 292 297 302 307 314 321 328 333 337 341
231 231 232 232 232 232 232 230 229 228 230 232 226 221 227 233 230 232 234 227 224 226 225 226 226 217 213 220 228 233 236 239 245 251 256 257 257 257 257 257 258 260 261 261 262 261 260 259 262 264 268 272 277 281 287 292 296 300 306 312 317 321 324
231 231 231 231 231 231 230 228 225 223 223 228 231 232 236 236 232 234 234 226 221 223 224 224 224 221 219 219 219 224 230 235 240 247 254 258 258 258 257 256 256 256 255 255 256 256 255 255 257 260 262 265 269 273 278 282 285 289 294 299 304 307 310
230 231 231 231 231 231 229 228 227 226 227 231 235 236 238 236 234 236 237 231 224 223 228 228 224 225 225 222 219 222 230 234 234 240 252 257 259 259 257 255 253 252 251 250 250 250 250 251 252 254 257 259 262 266 269 273 277 281 285 288 292 296 298
230 231 231 231 230 230 230 229 228 229 230 233 234 234 235 235 233 235 238 235 229 227 229 228 225 224 224 222 220 223 230 233 231 236 250 257 260 260 259 258 254 250 247 246 246 246 246 246 246 248 251 254 257 260 263 266 270 273 277 279 282 285 287
229 230 231 231 231 230 230 229 229 230 231 232 232 231 232 232 231 232 235 236 235 232 231 229 224 220 220 221 221 222 223 222 227 235 243 253 262 263 260 263 261 255 249 244 243 244 244 244 243 243 245 248 251 255 258 261 264 267 270 272 274 277 279
229 229 230 231 231 231 230 229 229 230 231 231 230 228 228 228 227 227 228 233 238 237 234 231 223 216 218 221 220 220 217 214 220 228 232 243 257 260 258 262 265 263 257 250 245 243 243 244 243 241 242 243 245 249 253 256 259 261 264 266 269 271 273
230 230 230 231 231 230 230 230 229 229 229 229 228 225 223 223 222 221 221 225 235 238 235 229 218 214 218 219 217 216 213 210 212 220 232 245 252 249 246 254 266 269 265 259 254 249 244 243 244 243 243 243 244 246 249 252 256 258 261 263 265 267 270
231 231 231 231 231 231 231 230 230 229 228 228 226 223 220 219 217 217 216 218 225 231 229 224 215 212 216 218 220 220 215 209 205 208 224 240 243 238 230 234 256 270 271 268 263 258 252 246 245 245 246 248 248 249 251 254 257 260 262 264 265 266 268
231 231 232 232 232 232 232 231 230 230 229 228 226 224 221 219 216 215 214 215 221 225 223 220 216 214 215 218 222 223 218 211 208 207 215 227 233 228 217 217 230 249 263 269 270 266 260 252 248 246 246 249 251 253 255 257 260 262 263 265 266 267 268
231 232 232 233 233 233 233 232 231 231 230 229 227 226 224 220 217 216 214 215 221 224 222 220 219 217 217 218 221 222 218 214 215 215 217 223 229 226 215 213 218 226 237 248 256 260 258 255 251 248 246 247 250 253 256 257 259 261 262 263 265 266 268
231 232 232 233 234 234 234 233 233 232 231 230 228 227 225 222 219 219 218 220 224 226 223 221 219 217 216 218 222 224 223 221 221 221 221 224 229 228 222 218 217 218 221 226 234 242 246 249 251 249 246 245 245 248 251 253 254 255 255 257 260 263 265
230 231 232 233 234 235 235 234 234 233 232 231 230 228 227 225 222 221 222 224 227 227 225 223 220 217 216 217 220 224 227 227 226 225 225 226 226 225 225 225 222 219 220 222 226 232 239 246 252 253 252 249 245 244 246 247 248 248 247 247 250 254 258
230 231 232 232 234 235 236 236 235 234 233 233 232 231 229 227 225 224 223 224 226 226 226 225 223 220 218 216 216 219 223 226 227 226 226 227 225 222 223 226 226 225 225 227 228 230 236 244 251 254 255 253 250 246 245 247 250 252 249 245 243 245 248
230 231 231 232 233 234 236 237 237 236 235 234 233 233 232 230 228 226 225 224 224 225 225 226 226 224 222 218 216 217 218 220 222 224 225 226 226 224 223 225 227 229 230 231 231 230 233 238 241 244 246 246 245 243 242 244 248 253 256 252 246 244 245
231 231 231 232 232 234 235 237 238 238 237 235 234 233 233 232 231 228 226 225 225 224 224 226 227 227 225 222 220 219 219 220 220 220 223 226 226 227 228 228 229 230 231 232 234 234 236 238 239 239 238 237 238 238 238 238 236 238 243 246 245 245 246
231 231 231 231 232 233 234 235 237 238 238 238 236 235 234 233 233 231 229 227 226 225 225 225 226 227 227 225 223 221 221 223 222 222 224 226 225 227 231 232 231 230 230 232 234 235 239 242 243 242 238 235 235 234 234 234 233 231 234 239 242 243 246
230 231 231 231 232 232 233 234 235 236 238 239 239 237 236 235 234 233 231 229 227 226 226 226 226 227 228 227 225 223 223 225 226 226 226 225 225 226 228 230 230 231 234 236 235 236 238 241 243 243 240 237 235 234 232 231 231 230 230 235 239 242 243
230 231 231 232 232 233 233 233 234 235 236 237 239 239 239 237 235 233 232 231 229 227 227 227 227 226 228 228 227 225 224 225 227 229 227 225 224 225 226 227 228 230 235 239 239 239 240 240 240 240 239 238 237 234 231 230 230 229 229 232 235 237 239
229 231 231 232 232 232 233 233 234 234 235 236 237 238 239 239 238 236 234 232 231 229 228 227 227 227 227 229 228 226 224 223 225 227 227 225 224 225 225 225 226 227 231 235 238 240 242 243 242 240 239 238 236 234 232 231 229 228 229 231 233 233 234
229 230 231 231 232 232 233 233 233 234 234 235 236 237 237 238 239 238 236 234 232 231 230 228 228 228 228 228 229 228 226 224 223 224 225 224 223 224 225 226 228 230 230 232 235 237 239 241 243 243 241 239 236 234 233 232 231 227 226 229 233 232 233
229 230 231 231 232 232 233 233 233 233 234 234 235 236 236 237 238 239 238 237 234 233 232 230 228 228 228 229 229 228 227 225 224 224 223 223 222 224 225 227 230 233 233 232 234 236 237 237 240 243 243 240 238 235 234 234 233 229 226 228 230 230 231
229 230 231 231 232 232 233 234 234 234 234 234 234 235 236 237 237 238 238 238 237 234 233 232 230 229 228 228 229 229 228 226 225 225 225 224 223 224 225 226 228 230 231 232 233 234 235 235 237 240 241 239 238 237 236 236 235 232 229 229 229 229 229
230 230 231 232 232 232 233 234 234 234 234 234 234 235 235 236 237 237 237 238 238 237 234 233 232 231 230 229 229 230 229 228 226 226 227 227 226 226 226 225 226 227 227 229 231 233 233 233 235 238 239 238 236 236 235 236 236 236 234 231 229 228 228
230 230 231 232 233 233 234 234 234 235 235 235 235 235 235 236 236 237 237 238 238 238 236 234 233 232 231 230 229 229 230 229 227 226 227 228 228 227 227 226 226 226 226 227 229 231 232 232 233 235 237 237 236 235 234 235 235 235 235 234 230 228 228
230 230 231 232 232 233 234 235 235 235 235 236 236 236 236 236 236 237 237 238 238 238 237 236 235 233 233 232 231 230 229 229 229 228 227 227 228 228 228 227 227 227 228 228 228 230 231 231 232 234 235 236 237 235 234 235 234 232 233 234 233 230 228
231 231 231 232 232 233 234 235 235 236 236 236 236 236 236 237 237 237 237 237 238 238 238 237 236 234 233 233 233 231 230 229 229 229 228 227 227 228 228 228 228 229 229 229 229 229 230 230 231 233 234 235 235 235 234 235 234 232 231 233 235 235 233
232 231 232 232 232 233 234 234 235 236 237 237 237 237 237 237 237 237 237 237 237 237 237 237 237 236 234 233 233 233 231 229 229 229 229 228 227 227 228 228 229 230 231 232 231 231 232 231 231 233 235 235 235 234 234 234 233 232 232 232 234 237 238
233 232 232 232 233 233 233 234 235 236 237 238 238 238 238 237 237 237 237 237 237 237 237 237 237 236 235 234 233 233 232 231 230 229 229 229 228 227 227 228 229 230 232 233 234 233 233 233 232 232 234 235 235 234 233 233 233 232 232 232 233 236 238
235 234 233 233 233 233 234 234 235 235 236 237 238 239 239 238 238 238 238 238 237 237 237 236 236 236 236 235 234 233 232 232 231 230 229 229 228 227 227 228 229 229 230 232 234 234 234 233 233 232 233 234 235 234 233 232 233 233 232 232 233 234 235
Height
10987 10989 10989 10991 10995 10997 11000 11002 11003 11004 11005 11006 11008 11008 11009 11010 11012 11014 11016 11018 11019 11019 11020 11022 11023 11025 11026 11028 11029 11029 11030 11031 11032 11032 11032 11033 11033 11033 11033 11033 11034 11034 11034 11034 11034 11034 11034 11034 11033 11033 11032 11031 11030 11030 11029 11028 11027 11026 11025 11024 11023 11023 11022
10985 10986 10986 10988 10992 10994 10997 10999 11000 11002 11003 11004 11006 11007 11007 11008 11010 11012 11014 11016 11017 11018 11019 11020 11021 11022 11024 11026 11028 11029 11030 11031 11032 11032 11033 11033 11033 11034 11034 11034 11034 11034 11034 11034 11035 11035 11035 11035 11035 11034 11034 11033 11032 11031 11031 11030 11029 11028 11027 11026 11025 11025 11024
10983 10987 10986 10986 10987 10990 10994 10996 10997 10999 11000 11002 11003 11004 11005 11006 11007 11010 11012 11014 11016 11017 11017 11018 11019 11020 11022 11024 11026 11027 11029 11030 11031 11032 11032 11033 11033 11034 11034 11034 11034 11035 11035 11035 11035 11036 11036 11036 11036 11035 11035 11034 11033 11033 11032 11031 11030 11029 11029 11028 11027 11026 11025
10979 10986 10986 10982 10982 10985 10989 10992 10994 10996 10997 10998 11000 11000 11001 11002 11004 11007 11009 11011 11013 11015 11016 11017 11018 11019 11020 11021 11023 11025 11027 11028 11029 11031 11032 11032 11033 11033 11034 11034 11034 11035 11035 11035 11035 11036 11036 11036 11036 11036 11035 11035 11034 11034 11033 11032 11031 11030 11030 11029 11028 11028 11027
10972 10978 10979 10978 10979 10981 10985 10989 10992 10993 10993 10995 10997 10998 10999 11000 11002 11005 11007 11009 11011 11013 11015 11016 11017 11018 11019 11020 11021 11023 11025 11026 11028 11029 11030 11031 11032 11033 11033 11034 11034 11035 11035 11035 11035 11036 11036 11036 11036 11036 11036 11035 11035 11034 11034 11033 11032 11032 11031 11030 11029 11029 11028
10964 10969 10971 10973 10975 10977 10980 10984 10987 10988 10989 10991 10995 10998 10998 10999 11002 11004 11006 11008 11010 11012 11013 11015 11016 11017 11018 11019 11020 11021 11023 11024 11026 11027 11028 11029 11030 11031 11032 11033 11033 11034 11034 11035 11035 11035 11036 11036 11036 11036 11036 11035 11035 11034 11034 11034 11033 11033 11032 11031 11030 11029 11029
10956 10961 10965 10968 10970 10973 10976 10979 10982 10984 10986 10989 10992 10996 10998 10999 11000 11002 11004 11006 11008 11010 11012 11013 11014 11015 11016 11017 11019 11020 11021 11022 11023 11024 11026 11027 11028 11030 11031 11032 11032 11033 11034 11034 11034 11035 11035 11035 11035 11035 11035 11035 11035 11035 11034 11034 11033 11033 11032 11031 11030 11030 11029
10950 10954 10959 10963 10965 10969 10972 10975 10979 10981 10984 10986 10989 10992 10994 10996 10998 11000 11002 11004 11005 11007 11009 11010 11011 11012 11014 11015 11017 11018 11019 11020 11021 11022 11023 11025 11026 11027 11029 11030 11031 11032 11033 11033 11033 11034 11034 11035 11035 11035 11035 11034 11034 11034 11034 11033 11033 11032 11032 11031 11031 11030 11029
10944 10948 10953 10957 10960 10964 10968 10972 10975 10976 10979 10981 10984 10987 10990 10993 10996 10998 11000 11002 11003 11005 11006 11008 11008 11007 11009 11012 11014 11016 11017 11018 11019 11020 11021 11022 11023 11025 11026 11028 11029 11030 11031 11031 11032 11032 11033 11033 11034 11034 11034 11034 11033 11033 11033 11033 11032 11032 11032 11031 11030 11030 11029
10937 10941 10946 10950 10955 10959 10964 10969 10971 10972 10974 10976 10977 10982 10986 10990 10994 10996 10998 11000 11001 11003 11004 11005 11005 11004 11004 11007 11011 11013 11014 11015 11017 11018 11019 11020 11021 11022 11023 11025 11026 11027 11029 11029 11030 11031 11031 11032 11032 11032 11032 11032 11032 11032 11032 11032 11031 11031 11031 11030 11030 11029 11028
10930 10935 10940 10944 10949 10953 10958 10963 10965 10967 10969 10969 10971 10977 10983 10988 10991 10994 10996 10998 10999 11001 11003 11003 11004 11004 11003 11004 11007 11008 11009 11012 11014 11016 11017 11018 11019 11020 11021 11022 11023 11024 11026 11027 11027 11028 11029 11029 11030 11030 11030 11030 11030 11030 11030 11030 11030 11030 11030 11029 11029 11028 11027
10924 10929 10934 10939 10943 10947 10952 10957 10959 10962 10964 10965 10969 10976 10981 10985 10990 10992 10995 10997 10998 11000 11001 11002 11002 11002 11003 11003 11004 11004 11006 11009 11011 11013 11015 11016 11017 11017 11018 11019 11020 11021 11022 11023 11024 11025 11026 11027 11027 11028 11028 11028 11028 11028 11028 11028 11028 11028 11028 11027 11027 11026 11026
10918 10923 10928 10933 10938 10941 10946 10950 10953 10957 10959 10962 10968 10974 10978 10983 10988 10991 10993 10995 10996 10998 10999 11000 11000 11000 11001 11001 11001 11002 11004 11006 11008 11009 11011 11012 11013 11014 11015 11016 11016 11018 11019 11019 11020 11021 11022 11023 11024 11025 11025 11025 11025 11025 11026 11026 11026 11026 11026 11025 11025 11025 11024
10912 10916 10921 10926 10931 10936 10940 10944 10948 10951 10955 10959 10966 10971 10976 10981 10985 10988 10991 10993 10993 10994 10996 10997 10997 10998 10998 10999 10999 11000 11003 11004 11006 11006 11006 11007 11009 11011 11011 11012 11013 11014 11015 11015 11016 11017 11018 11019 11020 11021 11021 11021 11022 11022 11023 11023 11023 11023 11023 11023 11023 11022 11022
10905 10909 10914 10919 10924 10929 10934 10938 10943 10946 10950 10956 10961 10967 10974 10978 10979 10981 10984 10987 10988 10989 10991 10993 10994 10995 10995 10996 10997 10998 11000 11001 11001 11001 11000 11001 11004 11007 11008 11008 11009 11010 11011 11012 11012 11013 11014 11015 11015 11016 11017 11017 11018 11019 11019 11019 11020 11020 11020 11020 11020 11019 11019
10898 10902 10907 10912 10917 10922 10928 10932 10937 10941 10946 10951 10956 10963 10970 10971 10971 10972 10974 10978 10983 10984 10985 10988 10991 10992 10991 10992 10994 10996 10997 10996 10996 10996 10997 10999 11001 11003 11003 11004 11005 11006 11007 11008 11009 11009 11010 11010 11011 11012 11012 11013 11014 11015 11015 11016 11016 11017 11017 11018 11017 11017 11016
10891 10895 10900 10905 10909 10915 10920 10925 10931 10935 10940 10945 10950 10956 10960 10962 10964 10966 10966 10971 10976 10977 10979 10983 10986 10986 10987 10989 10992 10993 10993 10992 10991 10992 10997 11002 11002 10999 10997 10996 10999 11002 11003 11004 11005 11005 11006 11006 11007 11008 11009 11010 11011 11011 11012 11012 11013 11014 11015 11015 11015 11015 11014
10883 10888 10893 10897 10902 10908 10913 10918 10924 10928 10933 10938 10942 10947 10951 10954 10958 10961 10962 10965 10967 10969 10972 10976 10979 10981 10983 10985 10986 10988 10989 10989 10987 10987 10992 10998 11000 10996 10990 10988 10992 10996 10998 11000 11000 11001 11002 11002 11003 11004 11005 11006 11007 11008 11009 11010 11011 11012 11013 11013 11013 11013 11013
10876 10880 10885 10890 10895 10900 10905 10911 10916 10921 10926 10931 10935 10939 10943 10948 10952 10955 10957 10959 10961 10963 10966 10969 10972 10976 10978 10980 10980 10982 10984 10985 10985 10985 10987 10989 10991 10990 10986 10983 10985 10988 10991 10994 10995 10995 10997 10998 10999 11000 11001 11003 11004 11005 11006 11007 11009 11010 11011 11011 11012 11012 11011
10868 10874 10879 10883 10888 10893 10898 10903 10908 10913 10918 10922 10927 10931 10936 10940 10944 10948 10950 10952 10955 10958 10961 10963 10966 10970 10973 10975 10977 10979 10980 10982 10983 10984 10984 10982 10983 10985 10985 10983 10983 10982 10983 10985 10986 10986 10989 10992 10994 10995 10997 10998 10999 11000 11002 11003 11005 11007 11008 11010 11010 11010 11010
10860 10866 10871 10876 10880 10885 10890 10895 10900 10905 10909 10914 10919 10923 10928 10932 10936 10940 10943 10946 10949 10952 10954 10957 10960 10964 10967 10970 10974 10976 10977 10979 10980 10981 10981 10979 10979 10981 10983 10984 10983 10981 10980 10980 10980 10981 10984 10987 10989 10991 10992 10993 10994 10995 10997 10998 11000 11003 11004 11006 11007 11008 11008
10852 10858 10863 10868 10872 10877 10881 10886 10891 10896 10901 10906 10910 10915 10919 10924 10928 10933 10936 10939 10942 10945 10948 10950 10953 10957 10960 10963 10967 10969 10971 10974 10976 10977 10977 10976 10976 10978 10979 10981 10982 10981 10980 10980 10980 10981 10983 10985 10986 10988 10990 10991 10993 10994 10995 10996 10998 11000 11001 11002 11003 11004 11004
10844 10850 10854 10860 10865 10868 10873 10877 10883 10888 10893 10898 10902 10906 10911 10916 10920 10925 10928 10932 10935 10938 10941 10943 10946 10949 10953 10956 10959 10961 10963 10966 10968 10970 10972 10972 10974 10975 10976 10977 10979 10979 10979 10979 10979 10980 10981 10981 10983 10985 10986 10987 10990 10992 10992 10994 10996 10998 10999 11000 11001 11001 11000
10835 10841 10846 10851 10856 10860 10864 10869 10874 10879 10884 10889 10893 10898 10902 10907 10912 10916 10920 10924 10927 10930 10933 10936 10939 10941 10945 10949 10952 10954 10957 10959 10961 10963 10965 10967 10970 10973 10974 10975 10976 10976 10976 10976 10977 10979 10980 10980 10981 10982 10982 10983 10985 10987 10988 10990 10992 10993 10994 10996 10997 10998 10999
10825 10830 10836 10842 10847 10850 10855 10860 10865 10869 10874 10879 10884 10889 10894 10898 10902 10907 10912 10916 10919 10923 10925 10928 10931 10934 10937 10941 10944 10948 10951 10953 10955 10957 10959 10961 10965 10968 10970 10971 10971 10972 10972 10973 10975 10977 10978 10979 10980 10981 10981 10981 10981 10983 10985 10987 10988 10989 10990 10992 10994 10996 10997
10814 10819 10825 10832 10836 10838 10845 10852 10856 10860 10865 10869 10873 10879 10884 10888 10892 10897 10902 10907 10911 10915 10917 10920 10923 10926 10929 10932 10936 10940 10944 10946 10949 10951 10953 10955 10959 10962 10964 10965 10966 10967 10968 10969 10971 10973 10973 10973 10975 10977 10978 10979 10979 10979 10981 10983 10984 10985 10987 10989 10992 10994 10995
10803 10808 10815 10821 10824 10829 10837 10843 10845 10850 10856 10860 10863 10869 10874 10877 10882 10887 10892 10897 10901 10905 10909 10911 10914 10918 10921 10924 10928 10932 10936 10939 10942 10944 10946 10949 10952 10955 10957 10959 10960 10962 10963 10964 10966 10967 10967 10968 10969 10971 10974 10975 10977 10977 10978 10978 10980 10981 10983 10986 10988 10991 10992
10792 10798 10803 10807 10812 10819 10827 10831 10834 10840 10847 10850 10853 10859 10863 10866 10871 10877 10882 10886 10891 10895 10899 10902 10905 10909 10912 10915 10919 10923 10927 10931 10934 10936 10939 10942 10945 10948 10950 10952 10954 10955 10957 10958 10959 10960 10961 10962 10963 10965 10968 10970 10972 10974 10974 10974 10976 10978 10980 10982 10984 10987 10989
10782 10785 10789 10793 10800 10809 10814 10817 10823 10829 10835 10839 10843 10848 10853 10857 10861 10866 10870 10875 10880 10885 10888 10893 10896 10900 10903 10906 10910 10914 10918 10922 10925 10927 10930 10933 10937 10940 10943 10945 10947 10949 10951 10952 10952 10953 10953 10954 10956 10959 10962 10964 10967 10969 10970 10971 10973 10975 10976 10978 10981 10984 10985
10767 10769 10774 10781 10789 10796 10800 10804 10810 10817 10822 10828 10833 10837 10841 10846 10850 10854 10859 10864 10869 10874 10878 10882 10886 10890 10893 10897 10900 10904 10909 10913 10916 10919 10922 10924 10928 10931 10934 10937 10939 10941 10944 10946 10946 10947 10948 10948 10950 10953 10955 10958 10961 10965 10967 10969 10970 10972 10973 10974 10976 10979 10981
10752 10756 10762 10769 10776 10783 10786 10790 10797 10804 10809 10815 10821 10825 10830 10834 10839 10843 10848 10852 10857 10861 10866 10871 10876 10880 10884 10887 10891 10895 10899 10903 10908 10911 10914 10917 10920 10923 10925 10928 10930 10933 10936 10938 10939 10940 10942 10943 10944 10946 10949 10952 10956 10961 10965 10967 10968 10969 10969 10970 10971 10973 10975
10740 10745 10750 10756 10763 10769 10772 10776 10783 10790 10796 10802 10808 10813 10818 10822 10827 10831 10836 10840 10845 10849 10855 10860 10865 10869 10873 10877 10881 10885 10889 10893 10898 10902 10906 10909 10912 10915 10916 10919 10921 10923 10926 10929 10931 10932 10934 10936 10937 10939 10943 10946 10949 10954 10958 10961 10963 10964 10964 10965 10967 10968 10971
10727 10733 10738 10743 10749 10754 10758 10764 10771 10777 10783 10789 10795 10800 10806 10810 10814 10819 10823 10828 10833 10838 10844 10849 10854 10858 10862 10867 10871 10875 10878 10883 10888 10893 10896 10900 10903 10906 10908 10910 10912 10914 10916 10919 10922 10924 10926 10928 10930 10932 10936 10939 10942 10945 10948 10951 10954 10956 10957 10959 10961 10964 10966
10713 10719 10725 10730 10735 10740 10746 10752 10757 10762 10769 10775 10780 10786 10792 10797 10802 10807 10812 10816 10821 10827 10833 10838 10843 10847 10852 10856 10860 10863 10867 10873 10879 10884 10887 10889 10892 10896 10899 10901 10903 10905 10906 10909 10913 10916 10918 10920 10922 10925 10928 10931 10934 10937 10940 10942 10945 10948 10950 10953 10956 10959 10962
10698 10705 10711 10716 10721 10727 10733 10738 10743 10748 10753 10760 10766 10772 10778 10784 10789 10795 10800 10805 10810 10815 10821 10826 10831 10836 10840 10844 10848 10851 10856 10863 10869 10873 10875 10877 10881 10886 10889 10892 10894 10896 10897 10900 10903 10907 10910 10913 10915 10917 10920 10923 10926 10929 10932 10934 10937 10941 10944 10947 10949 10952 10956
10683 10689 10696 10702 10708 10713 10719 10725 10729 10734 10738 10744 10751 10757 10764 10770 10775 10781 10786 10792 10797 10803 10808 10813 10818 10823 10828 10832 10835 10838 10845 10853 10857 10859 10862 10866 10871 10876 10879 10881 10884 10887 10888 10890 10894 10897 10901 10904 10907 10910 10913 10915 10918 10922 10925 10926 10929 10933 10937 10940 10942 10945 10948
10667 10674 10681 10687 10693 10699 10705 10711 10716 10720 10725 10729 10735 10742 10749 10755 10760 10766 10773 10779 10785 10790 10795 10800 10806 10810 10815 10819 10823 10828 10834 10840 10843 10846 10850 10854 10860 10865 10868 10871 10874 10877 10878 10881 10884 10888 10891 10895 10898 10902 10905 10907 10910 10915 10917 10919 10921 10925 10928 10931 10934 10937 10940
10650 10658 10665 10672 10679 10684 10690 10696 10702 10707 10712 10715 10720 10726 10732 10739 10745 10752 10758 10764 10771 10777 10782 10787 10792 10797 10801 10806 10810 10815 10821 10825 10829 10834 10839 10843 10848 10854 10858 10860 10862 10865 10868 10871 10874 10878 10882 10885 10889 10893 10896 10899 10902 10906 10909 10911 10914 10917 10919 10922 10926 10929 10932